Change the Weather History Date:

Monday, November 5, 2012

  Actual Average Record
Temperature  
Mean Temperature 48 °F -  
Max Temperature 55 °F 59 °F 81 °F (1950)
Min Temperature 42 °F 35 °F 18 °F (1967)
Degree Days  
Heating Degree Days 16    
Moisture  
Dew Point 34 °F    
Average Humidity 56    
Maximum Humidity 71    
Minimum Humidity 44    
Precipitation  
Precipitation 0.00 in - - ()
Sea Level Pressure  
Sea Level Pressure 30.15 in    
Wind  
Wind Speed 11 mph (NNW)    
Max Wind Speed 21 mph    
Max Gust Speed 31 mph    
Visibility 10 miles    
Events      
Averages and records for this station are not official NWS values.
T = Trace of Precipitation, MM = Missing Value Source: NWS Daily Summary

Daily Weather History Graph

Daily Weather History Graph

Search for Another Location

Airport or City:

Trip Planner

Search our weather history database for the weather conditions in past years. The results will help you decide how hot, cold, wet, or windy it might be!

Date:

Astronomy

Nov. 05, 2012 Rise Set
Actual Time 7:06 AM CST 5:31 PM CST
Civil Twilight 6:38 AM CST 5:58 PM CST
Nautical Twilight 6:07 AM CST 6:30 PM CST
Astronomical Twilight 5:36 AM CST 7:01 PM CST
Moon 11:09 PM CST (11/5) 12:26 PM CST (11/5)
Length of Visible Light 11h 19m
Length of Day
10h 24m
Waning Gibbous, 62% of the Moon is Illuminated
Nov 5
Waning Gibbous
Nov 6
Last Quarter
Nov 13
New
Nov 20
First Quarter
Nov 28
Full

Hourly Weather History & Observations

Time (CST) Temp. Windchill Dew Point Humidity Pressure Visibility Wind Dir Wind Speed Gust Speed Precip Events Conditions
12:15 AM 53.6 °F - 33.8 °F 47% 30.12 in 10.0 mi WNW 8.1 mph - N/A   Partly Cloudy
12:35 AM 51.8 °F - 33.8 °F 50% 30.12 in 10.0 mi WNW 9.2 mph - N/A   Clear
12:55 AM 51.8 °F - 33.8 °F 50% 30.12 in 10.0 mi WNW 9.2 mph - N/A   Mostly Cloudy
1:15 AM 51.8 °F - 33.8 °F 50% 30.12 in 10.0 mi WNW 8.1 mph - N/A   Mostly Cloudy
1:35 AM 48.2 °F - 33.8 °F 58% 30.11 in 10.0 mi WNW 6.9 mph - N/A   Partly Cloudy
1:55 AM 46.4 °F 41.9 °F 32.0 °F 57% 30.12 in 10.0 mi WNW 9.2 mph - N/A   Clear
2:15 AM 46.4 °F 42.4 °F 32.0 °F 57% 30.12 in 10.0 mi WNW 8.1 mph - N/A   Clear
2:35 AM 46.4 °F 41.9 °F 32.0 °F 57% 30.12 in 10.0 mi WNW 9.2 mph - N/A   Clear
2:55 AM 44.6 °F 39.7 °F 30.2 °F 57% 30.12 in 10.0 mi West 9.2 mph - N/A   Clear
3:15 AM 42.8 °F 38.0 °F 30.2 °F 61% 30.12 in 10.0 mi WNW 8.1 mph - N/A   Clear
3:35 AM 44.6 °F 39.2 °F 32.0 °F 61% 30.12 in 10.0 mi NW 10.4 mph - N/A   Clear
3:55 AM 48.2 °F - 33.8 °F 58% 30.12 in 10.0 mi NW 11.5 mph - N/A   Clear
4:15 AM 48.2 °F - 33.8 °F 58% 30.12 in 10.0 mi NW 12.7 mph - N/A   Clear
4:35 AM 46.4 °F 41.1 °F 33.8 °F 62% 30.13 in 10.0 mi NW 11.5 mph - N/A   Clear
4:55 AM 46.4 °F 40.7 °F 33.8 °F 62% 30.13 in 10.0 mi NNW 12.7 mph - N/A   Clear
5:15 AM 46.4 °F 41.1 °F 33.8 °F 62% 30.13 in 10.0 mi NNW 11.5 mph - N/A   Clear
5:35 AM 44.6 °F 38.4 °F 33.8 °F 66% 30.14 in 10.0 mi NNW 12.7 mph - N/A   Clear
5:55 AM 44.6 °F 38.8 °F 33.8 °F 66% 30.15 in 10.0 mi NW 11.5 mph - N/A   Clear
6:15 AM 42.8 °F 36.6 °F 33.8 °F 70% 30.16 in 10.0 mi NNW 11.5 mph - N/A   Clear
6:35 AM 42.8 °F 36.6 °F 33.8 °F 70% 30.16 in 10.0 mi NNW 11.5 mph - N/A   Clear
6:55 AM 42.8 °F 36.2 °F 33.8 °F 70% 30.17 in 10.0 mi NNW 12.7 mph - N/A   Clear
7:15 AM 42.8 °F 36.2 °F 33.8 °F 70% 30.17 in 10.0 mi NNW 12.7 mph 17.3 mph N/A   Partly Cloudy
7:35 AM 42.8 °F 36.2 °F 33.8 °F 70% 30.17 in 10.0 mi NNW 12.7 mph - N/A   Partly Cloudy
7:55 AM 44.6 °F 38.4 °F 35.6 °F 71% 30.18 in 10.0 mi NNW 12.7 mph 18.4 mph N/A   Mostly Cloudy
8:15 AM 44.6 °F 38.8 °F 35.6 °F 71% 30.18 in 10.0 mi NNW 11.5 mph 16.1 mph N/A   Overcast
8:35 AM 46.4 °F 40.4 °F 35.6 °F 66% 30.19 in 10.0 mi NNW 13.8 mph 25.3 mph N/A   Overcast
8:55 AM 46.4 °F 40.7 °F 35.6 °F 66% 30.19 in 10.0 mi NNW 12.7 mph - N/A   Overcast
9:15 AM 46.4 °F 39.5 °F 35.6 °F 66% 30.20 in 10.0 mi North 17.3 mph 23.0 mph N/A   Overcast
9:35 AM 46.4 °F 39.5 °F 35.6 °F 66% 30.19 in 10.0 mi North 17.3 mph 24.2 mph N/A   Overcast
9:55 AM 46.4 °F 38.7 °F 35.6 °F 66% 30.19 in 10.0 mi North 20.7 mph 26.5 mph N/A   Overcast
10:15 AM 46.4 °F 39.5 °F 35.6 °F 66% 30.20 in 10.0 mi North 17.3 mph - N/A   Overcast
10:35 AM 48.2 °F - 35.6 °F 62% 30.20 in 10.0 mi North 19.6 mph 28.8 mph N/A   Overcast
10:55 AM 48.2 °F - 33.8 °F 58% 30.20 in 10.0 mi NNW 18.4 mph 26.5 mph N/A   Overcast
11:15 AM 51.8 °F - 33.8 °F 50% 30.19 in 10.0 mi North 20.7 mph 26.5 mph N/A   Scattered Clouds
11:35 AM 51.8 °F - 35.6 °F 54% 30.19 in 10.0 mi North 16.1 mph 31.1 mph N/A   Scattered Clouds
11:55 AM 51.8 °F - 33.8 °F 50% 30.18 in 10.0 mi North 17.3 mph 24.2 mph N/A   Scattered Clouds
12:15 PM 53.6 °F - 33.8 °F 47% 30.18 in 10.0 mi NNW 17.3 mph 20.7 mph N/A   Scattered Clouds
12:35 PM 53.6 °F - 33.8 °F 47% 30.17 in 10.0 mi North 16.1 mph 24.2 mph N/A   Mostly Cloudy
12:55 PM 53.6 °F - 35.6 °F 51% 30.16 in 10.0 mi North 17.3 mph 20.7 mph N/A   Scattered Clouds
1:15 PM 53.6 °F - 35.6 °F 51% 30.16 in 10.0 mi North 15.0 mph 20.7 mph N/A   Partly Cloudy
1:35 PM 55.4 °F - 35.6 °F 47% 30.15 in 10.0 mi North 17.3 mph - N/A   Partly Cloudy
1:55 PM 55.4 °F - 33.8 °F 44% 30.14 in 10.0 mi North 16.1 mph 20.7 mph N/A   Partly Cloudy
2:15 PM 55.4 °F - 33.8 °F 44% 30.14 in 10.0 mi NNW 17.3 mph 20.7 mph N/A   Clear
2:35 PM 55.4 °F - 33.8 °F 44% 30.13 in 10.0 mi NNW 10.4 mph - N/A   Clear
2:55 PM 55.4 °F - 33.8 °F 44% 30.12 in 10.0 mi North 12.7 mph 20.7 mph N/A   Clear
3:15 PM 55.4 °F - 33.8 °F 44% 30.12 in 10.0 mi North 10.4 mph 17.3 mph N/A   Clear
3:35 PM 55.4 °F - 33.8 °F 44% 30.12 in 10.0 mi North 10.4 mph 16.1 mph N/A   Clear
3:55 PM 53.6 °F - 33.8 °F 47% 30.12 in 10.0 mi North 12.7 mph - N/A   Clear
4:15 PM 53.6 °F - 33.8 °F 47% 30.13 in 10.0 mi North 10.4 mph - N/A   Clear
4:35 PM 53.6 °F - 33.8 °F 47% 30.13 in 10.0 mi North 6.9 mph - N/A   Clear
4:55 PM 51.8 °F - 32.0 °F 47% 30.13 in 10.0 mi NNE 8.1 mph - N/A   Clear
5:15 PM 50.0 °F - 30.2 °F 47% 30.12 in 10.0 mi NNE 9.2 mph - N/A   Clear
5:35 PM 48.2 °F - 30.2 °F 50% - 10.0 mi North - - N/A   Clear
5:55 PM - - - N/A% - - North - - N/A   Unknown
6:15 PM - - - N/A% - - North - - N/A   Unknown
6:35 PM - - - N/A% - - North - - N/A   Unknown
6:55 PM - - - N/A% - - North - - N/A   Unknown
7:15 PM - - - N/A% - - North - - N/A   Unknown
7:35 PM - - - N/A% - - North - - N/A   Unknown
7:55 PM - - - N/A% - - North - - N/A   Unknown
8:15 PM - - - N/A% - - North - - N/A   Unknown
8:35 PM - - - N/A% - - North - - N/A   Unknown
8:55 PM - - - N/A% - - North - - N/A   Unknown
9:15 PM - - - N/A% - - North - - N/A   Unknown
9:35 PM - - - N/A% - - North - - N/A   Unknown
9:55 PM - - - N/A% - - North - - N/A   Unknown
10:15 PM - - - N/A% - - North - - N/A   Unknown
10:35 PM - - - N/A% - - North - - N/A   Unknown
10:55 PM - - - N/A% - - North - - N/A   Unknown
11:15 PM - - - N/A% - - North - - N/A   Unknown
11:35 PM - - - N/A% - - North - - N/A   Unknown
11:55 PM - - - N/A% - - North - - N/A   Unknown